RH
52 54 59 63 68 77 85 91 90 96 88 88 76 62 59 57 53 58 55 68 67 67 66 71 73 71 58 46 37 46 60 63 64 65 63 49 41 38 44 47 47 43 43 40 45 46 46 40 45
82 80 74 87 84 99 91 93 92 98 88 92 76 63 58 52 70 51 48 65 70 70 72 77 77 66 53 48 48 52 59 62 63 64 70 76 69 64 61 58 56 56 58 54 50 49 48 46 60
82 86 91 94 96 94 80 91 93 96 94 82 66 63 68 64 61 48 47 59 69 73 74 72 71 55 52 52 53 58 61 62 64 64 68 78 73 62 64 60 58 65 68 61 56 53 49 57 70
88 89 91 94 96 99 85 90 98 98 92 79 69 68 73 78 53 46 46 55 64 68 72 66 59 52 51 53 57 59 60 61 63 67 65 70 58 52 40 26 36 48 57 67 67 51 58 65 68
87 88 92 98 99 100 89 84 98 97 92 88 76 65 65 75 52 47 43 47 57 67 67 59 51 50 50 60 62 63 58 53 55 56 50 38 32 26 29 32 44 52 61 53 56 54 65 68 70
86 94 97 97 99 91 89 78 96 95 91 86 79 72 76 66 53 42 36 43 49 58 55 43 42 49 59 63 67 64 50 45 31 31 42 37 37 36 49 44 35 32 36 42 59 71 73 82 75
86 90 96 99 81 77 77 81 99 94 90 84 80 79 74 59 58 37 29 35 38 44 41 42 49 56 60 65 62 45 40 26 40 46 49 31 44 58 39 43 33 32 44 47 64 68 77 78 70
84 90 93 96 98 91 80 96 100 97 92 80 88 83 65 50 61 40 28 29 36 42 44 46 54 64 66 59 42 37 28 44 41 39 39 56 57 37 45 43 32 41 48 51 56 58 57 58 65
86 89 87 96 93 91 95 95 90 87 81 83 80 84 61 45 44 33 25 28 32 38 42 48 52 57 55 45 38 27 34 48 35 44 52 55 41 32 31 37 38 35 44 46 48 58 63 66 69
82 86 84 87 93 87 89 97 92 80 77 79 73 76 62 42 33 25 22 24 27 32 38 45 50 52 49 38 30 41 48 42 44 42 56 51 42 42 34 33 35 38 44 46 48 54 60 68 68
79 80 80 81 85 91 94 94 94 86 80 82 64 70 58 42 32 26 27 29 26 31 36 40 49 53 43 43 27 59 42 33 44 41 38 51 55 52 46 51 57 72 75 61 50 56 63 72 52
72 75 72 73 75 84 91 89 89 84 82 88 80 66 57 43 36 32 28 27 24 28 34 39 46 52 42 43 25 57 49 41 35 50 50 56 52 56 58 62 68 78 73 70 58 59 77 79 51
75 73 66 56 58 52 91 88 86 92 85 83 90 75 56 51 47 55 57 61 38 27 29 33 42 48 45 43 26 67 79 48 65 66 60 52 50 45 73 76 80 84 76 71 70 82 77 71 67
77 68 51 43 40 46 85 81 75 81 82 75 83 89 66 65 63 72 72 77 62 44 33 27 38 45 45 47 28 39 71 66 72 84 70 67 76 74 52 86 85 70 71 66 70 69 79 89 75
72 58 44 33 42 59 83 80 73 77 84 85 80 94 87 81 75 72 71 83 81 70 62 27 34 44 46 49 32 23 60 64 64 83 74 85 88 86 84 89 74 63 71 74 77 78 86 80 72
63 51 35 35 59 73 80 74 74 81 89 88 81 86 89 92 84 90 97 97 72 60 52 30 30 42 45 46 58 52 42 62 68 65 56 59 78 83 79 84 69 74 59 70 77 78 95 83 77
56 44 33 38 58 76 74 76 74 76 73 75 73 85 83 87 96 98 95 89 81 58 38 31 26 35 43 43 53 59 23 45 56 59 55 76 73 62 73 70 90 76 66 67 73 76 82 82 78
52 44 33 50 58 71 78 64 69 75 67 71 78 74 82 86 88 89 83 82 94 83 71 57 24 28 39 39 42 56 38 44 42 55 66 69 71 70 81 86 87 77 81 80 71 76 80 74 58
48 43 35 32 33 34 28 31 40 73 73 74 80 82 81 89 89 88 71 74 92 89 79 54 42 30 32 34 50 50 27 43 44 60 68 71 69 64 70 75 65 70 81 88 91 76 71 62 40
48 43 36 30 32 26 28 29 41 68 74 71 85 88 85 90 97 95 77 88 89 90 87 70 57 41 45 60 71 70 40 45 58 66 71 69 75 81 58 59 82 77 76 76 85 81 74 61 56
45 42 35 30 28 34 39 49 47 60 74 73 77 91 96 93 94 94 78 73 81 86 87 78 66 46 30 39 41 45 36 44 52 56 69 69 68 64 57 58 77 84 82 67 64 79 79 77 71
47 33 31 29 28 24 37 70 54 59 66 71 72 72 80 85 92 92 88 77 70 70 67 87 90 82 39 22 33 33 29 38 50 64 72 68 67 61 63 61 56 67 75 56 70 73 88 75 78
39 35 34 29 25 27 53 52 27 57 61 66 68 64 68 73 69 73 76 67 68 62 53 70 86 78 67 20 28 31 42 50 59 54 68 58 54 55 65 65 64 66 61 54 59 73 77 78 75
36 33 29 26 24 24 33 35 24 42 48 43 56 62 63 69 67 61 61 69 78 77 73 66 72 67 69 35 25 30 32 47 47 48 55 68 36 37 48 60 66 58 64 69 52 71 82 65 66
30 30 28 29 29 29 23 32 28 35 51 25 20 37 51 66 62 57 54 65 78 85 83 82 72 76 79 60 27 30 29 36 44 64 74 67 36 32 38 54 60 68 66 65 57 55 63 70 63
24 26 26 31 40 28 23 22 36 26 24 22 15 18 38 63 57 62 61 54 65 73 80 81 74 79 82 68 30 29 29 38 45 49 56 62 44 33 34 40 58 60 56 60 62 51 55 70 68
25 26 27 24 29 25 24 24 28 28 24 21 20 19 45 57 59 58 61 63 64 72 77 76 66 76 93 81 41 27 30 28 43 46 51 62 46 36 34 38 42 58 59 57 56 55 47 44 54
24 27 26 24 34 30 28 45 45 27 23 25 25 25 27 48 61 67 67 60 66 70 73 79 77 70 78 78 40 25 28 30 29 40 45 42 48 58 40 35 42 51 54 51 53 52 50 42 41
23 24 24 26 26 38 42 50 59 48 30 26 26 28 26 26 47 59 74 68 64 74 76 77 84 90 94 97 88 50 25 28 32 29 33 40 39 50 56 53 32 45 50 47 51 46 46 50 38
19 24 24 25 28 31 36 43 68 52 38 30 25 26 27 27 29 45 62 70 69 65 74 76 81 85 88 95 99 98 61 28 26 32 30 32 36 38 38 34 31 30 33 35 30 33 36 44 48
Wind_Speed
4 5 4 4 3 4 5 3 9 4 11 7 12 22 23 9 9 3 23 25 23 21 22 20 18 15 13 12 12 13 13 11 10 10 11 12 11 9 8 7 7 8 7 8 7 7 7 8 9
5 4 4 1 3 2 4 2 8 12 12 7 22 15 14 19 4 12 24 26 22 19 19 18 16 13 12 12 12 11 9 9 8 8 9 9 8 8 9 8 8 8 8 8 8 9 10 12 13
4 4 2 2 5 3 4 7 12 13 9 25 22 20 10 11 3 21 21 24 22 19 18 16 15 12 11 11 10 9 8 7 6 6 6 6 6 6 6 6 7 7 8 9 10 12 13 14 14
5 4 2 6 10 11 10 12 15 16 15 18 20 17 11 6 9 21 21 21 22 20 17 15 14 12 11 10 8 8 7 6 6 6 7 7 6 5 4 4 5 6 7 9 11 14 15 14 12
4 3 3 10 13 5 8 18 18 20 21 16 19 14 11 9 21 19 19 20 18 18 16 15 14 12 11 9 8 7 6 5 5 4 5 6 6 7 7 7 6 7 7 11 13 16 16 15 12
3 3 5 10 10 4 11 26 17 20 17 16 18 15 14 17 24 20 19 19 18 15 15 14 13 11 10 9 8 7 5 4 4 4 6 8 9 10 9 8 7 7 10 14 17 18 17 15 13
6 7 10 10 12 19 18 23 19 16 14 13 12 8 17 29 25 19 20 19 18 16 14 13 11 11 10 9 8 6 5 5 7 7 12 14 14 11 10 10 10 12 14 17 19 17 17 13 11
7 11 12 11 3 15 18 16 14 14 11 7 6 9 23 31 25 21 21 19 18 16 15 13 10 10 10 10 8 7 8 9 10 11 15 16 15 14 14 14 15 17 17 17 18 16 14 13 10
8 9 13 16 8 10 16 16 13 11 8 9 12 13 24 29 27 23 22 21 20 18 16 13 10 10 9 8 8 7 11 12 12 12 14 15 16 16 17 17 18 19 20 18 17 15 13 12 10
9 9 11 14 15 6 11 12 10 12 12 8 8 18 32 28 26 21 19 19 18 17 16 14 11 11 10 8 8 10 12 12 13 12 13 13 15 16 18 18 19 20 19 19 16 15 12 10 7
6 7 8 11 12 5 9 6 9 10 8 9 8 21 32 27 24 20 18 15 14 16 15 14 12 12 10 8 9 12 13 13 14 13 13 13 13 15 17 18 17 18 16 14 15 14 12 11 11
10 6 6 8 11 11 6 3 6 8 6 6 12 16 25 25 23 21 18 16 14 15 15 14 13 12 11 10 10 10 13 13 15 14 13 13 13 13 14 12 11 12 16 15 15 15 13 12 13
10 4 1 4 9 10 2 5 3 12 8 9 14 20 24 23 21 21 17 13 14 13 13 14 13 12 12 11 11 12 12 13 11 12 11 12 15 12 13 12 8 7 7 11 15 14 12 13 12
11 7 3 2 8 3 8 3 4 7 15 13 13 25 26 23 24 23 19 13 11 11 11 14 14 13 12 11 11 11 9 11 12 12 12 9 9 10 12 9 6 4 3 6 10 11 11 9 8
10 7 3 3 2 8 8 5 4 1 12 16 19 24 27 28 24 21 15 11 7 8 10 14 14 14 13 12 10 10 10 10 9 8 11 11 8 8 7 7 6 6 4 4 6 7 8 7 8
11 6 1 3 2 6 8 1 4 5 10 18 23 20 24 29 24 19 18 11 7 9 14 17 16 14 14 11 10 10 12 10 8 10 12 11 8 6 4 7 6 5 5 5 7 7 9 5 6
12 5 1 3 6 5 7 3 6 6 8 21 19 21 23 24 26 22 18 13 8 7 11 14 15 15 14 11 11 10 12 11 10 10 12 9 7 6 5 6 5 5 3 5 5 10 10 8 6
12 8 7 8 5 6 9 10 11 6 6 13 15 15 21 24 24 23 21 17 13 8 7 10 12 16 16 13 12 8 12 13 12 12 10 8 7 4 5 3 5 7 7 5 7 10 10 6 4
13 10 9 4 3 5 9 11 12 10 13 13 17 18 19 23 24 23 21 21 16 13 10 10 10 12 13 10 11 7 12 14 12 9 8 7 6 6 3 4 3 6 10 9 9 7 6 2 3
15 13 9 4 6 10 6 9 11 15 14 12 18 20 21 23 29 25 24 23 20 16 9 10 9 11 12 11 11 8 12 13 12 10 8 7 4 5 3 4 5 5 5 6 11 11 6 3 7
17 16 13 6 5 4 6 4 11 15 20 18 14 19 29 25 31 30 26 26 21 20 15 10 6 8 13 14 14 13 15 16 14 10 7 6 6 4 4 4 3 4 3 7 8 9 9 8 7
20 17 12 4 3 3 4 3 6 16 18 21 17 16 22 26 30 31 29 26 24 19 17 13 9 7 10 15 14 11 13 14 11 11 8 7 6 6 4 4 2 2 3 4 7 10 11 11 6
12 11 8 5 3 3 2 1 4 11 19 22 21 17 17 24 23 26 30 24 19 17 16 14 12 10 10 14 14 13 13 17 16 14 9 7 7 6 5 4 4 2 3 3 7 6 8 11 11
8 6 4 4 5 2 5 4 3 4 4 10 19 23 18 24 25 20 22 26 27 19 17 14 13 11 11 13 13 13 14 14 16 14 10 10 9 8 7 6 6 4 3 2 4 10 7 6 7
13 11 4 2 2 5 11 5 4 2 11 16 15 16 20 20 27 27 24 26 28 27 23 18 16 15 13 14 17 15 14 14 16 14 12 14 11 8 8 8 6 6 4 3 2 5 7 7 8
12 16 5 5 5 5 11 8 4 4 5 10 8 9 14 25 25 29 26 24 22 21 20 20 18 15 14 16 18 17 16 16 17 19 15 14 14 12 12 11 10 8 7 5 3 3 6 6 8
12 13 14 7 6 5 7 5 8 1 3 4 3 10 16 22 30 23 22 26 24 22 23 21 19 17 16 15 19 19 18 17 16 17 17 18 16 16 14 12 13 12 9 7 6 4 4 7 9
14 13 11 9 3 2 2 6 5 1 4 4 6 6 14 19 23 28 26 20 25 23 20 22 19 17 15 16 19 20 18 18 18 18 17 15 18 19 17 14 15 14 11 11 9 7 5 5 7
14 13 7 12 6 6 4 3 4 3 2 3 3 5 6 17 21 23 30 27 19 25 25 21 23 21 20 19 17 20 21 20 20 20 19 18 18 20 20 17 17 17 15 13 11 10 8 6 7
7 12 12 11 7 6 7 6 4 2 1 2 5 5 5 7 17 22 26 31 27 22 27 28 25 24 21 20 20 20 21 22 24 22 21 21 20 19 19 17 18 18 17 16 14 12 10 10 9
Wind_Direction
178 197 203 216 250 266 292 297 166 145 139 155 162 157 148 151 118 108 148 155 153 152 144 145 144 135 129 131 128 125 121 117 113 112 104 101 111 122 126 127 131 142 144 148 147 140 132 131 109
188 189 196 265 249 261 328 281 188 151 151 149 149 160 153 155 25 147 154 152 153 153 148 148 146 138 136 131 127 123 121 119 111 106 107 108 116 117 118 123 130 132 131 128 135 135 125 120 109
136 139 115 261 247 226 188 160 150 152 153 155 155 157 151 161 29 154 147 152 153 157 150 145 147 137 137 132 131 132 128 120 116 119 126 118 121 118 127 129 123 123 121 130 132 123 120 125 120
132 70 353 270 286 282 183 186 151 153 161 163 164 158 155 160 139 150 147 153 154 155 153 149 143 141 135 137 136 127 119 123 135 138 143 156 153 154 134 141 145 142 147 131 126 127 125 127 122
82 96 316 322 327 276 175 183 159 157 166 166 175 188 186 156 148 152 148 152 155 157 154 151 144 141 138 141 139 129 120 118 124 142 156 160 159 148 145 142 147 158 152 143 137 133 131 124 120
102 46 13 6 8 78 155 188 179 170 176 181 175 174 169 155 154 153 150 154 153 159 157 151 148 145 141 141 137 130 116 110 118 142 140 145 138 131 133 124 129 137 144 146 141 133 130 127 118
85 55 34 38 74 128 152 184 173 175 183 186 181 189 170 154 157 155 151 156 155 157 155 148 150 146 144 136 131 119 111 106 102 104 119 125 123 115 109 111 117 123 126 135 135 132 132 132 109
96 72 51 38 61 182 183 180 172 163 176 178 174 189 169 158 160 162 155 158 157 159 156 152 155 145 138 134 125 116 109 106 101 113 117 120 118 113 113 111 109 112 117 127 132 133 135 132 122
101 82 61 34 45 152 162 178 156 135 150 173 180 169 174 161 161 168 163 163 164 165 158 151 153 145 140 131 122 119 116 108 110 114 118 115 114 111 110 109 106 111 118 120 126 127 124 128 121
117 86 63 41 39 159 214 183 152 155 163 164 179 170 173 164 163 169 167 165 164 165 160 155 157 146 139 133 131 125 118 109 109 117 117 117 115 112 110 111 111 113 115 121 124 129 133 135 117
147 106 59 31 24 61 165 147 162 164 173 112 145 163 166 164 162 164 162 160 163 165 162 160 162 151 145 142 137 128 118 109 109 114 120 122 120 116 114 113 116 114 114 121 127 124 124 116 100
158 114 54 17 5 347 147 161 167 184 175 141 145 173 173 167 169 165 162 161 166 166 168 167 164 159 151 147 145 140 130 123 121 114 116 116 122 120 118 118 118 122 114 110 117 122 116 108 105
179 144 198 11 320 323 232 308 211 192 169 183 172 185 179 171 164 154 160 157 165 169 173 173 168 167 160 152 153 147 138 133 129 119 118 115 123 122 127 126 110 127 114 120 121 119 116 103 98
200 227 206 245 286 205 226 241 101 186 193 209 183 176 188 180 173 172 165 163 155 169 176 179 176 173 170 163 164 162 160 150 136 130 127 144 138 123 140 136 142 131 135 106 109 110 101 104 106
206 235 251 331 144 174 186 206 172 255 214 214 233 177 180 184 180 183 173 161 162 186 181 181 184 182 177 178 170 173 161 165 165 157 144 144 143 140 145 143 142 141 162 119 84 116 112 116 115
210 221 167 350 160 167 197 46 251 284 225 213 219 184 180 187 185 183 176 170 178 183 182 183 189 189 183 187 177 175 169 170 174 161 155 147 146 162 142 156 137 139 143 158 151 123 156 162 134
199 170 119 85 162 184 201 301 273 254 158 165 184 175 172 180 185 183 173 176 150 154 171 185 192 196 191 194 194 180 178 180 186 176 151 142 144 165 156 162 154 165 164 179 158 159 162 162 148
192 185 136 93 170 215 251 275 282 281 222 196 202 187 181 183 187 184 175 170 161 162 180 192 199 196 197 200 207 199 200 186 178 168 154 139 126 113 195 192 203 186 174 152 152 154 170 178 174
192 199 182 145 134 282 300 282 270 248 232 200 204 212 193 194 194 189 178 171 167 175 168 171 187 200 201 205 209 204 196 189 177 165 161 148 136 118 151 227 202 181 187 197 180 165 165 190 136
212 221 208 212 177 306 294 293 248 239 216 212 203 211 212 198 205 192 189 191 193 187 167 177 179 197 213 208 209 210 205 194 186 185 180 150 171 165 137 177 197 172 179 191 204 201 170 130 127
222 228 215 195 337 24 355 289 216 212 216 204 207 209 216 217 213 206 199 199 198 199 191 170 169 203 218 224 213 213 204 201 199 187 182 183 179 162 172 149 182 201 197 183 173 182 194 156 140
225 219 203 224 333 13 326 326 220 209 223 226 220 221 217 220 211 216 214 200 193 192 185 193 211 211 221 220 215 204 207 212 208 184 193 204 191 188 189 179 177 222 238 205 173 190 191 183 191
213 178 209 255 235 252 181 219 294 218 223 235 229 237 231 217 211 209 212 193 184 186 196 197 205 217 230 218 212 210 204 204 215 207 198 212 206 198 200 188 196 204 215 238 199 175 198 212 229
185 203 226 203 203 211 182 202 276 257 213 287 260 244 249 222 216 211 206 214 204 194 193 204 206 219 234 235 223 217 207 208 216 220 218 223 217 203 206 204 197 171 158 197 218 222 230 226 212
207 206 145 96 166 193 153 177 54 266 204 308 271 256 250 233 221 216 198 202 211 210 218 214 211 214 225 241 231 223 221 221 221 223 232 227 225 202 203 208 211 207 206 201 205 200 196 193 192
209 212 182 162 170 182 167 171 66 94 273 328 261 206 224 227 220 226 219 208 210 210 209 207 201 207 218 235 237 229 221 221 225 228 230 232 227 210 203 199 207 215 213 212 212 197 208 213 210
192 191 203 113 114 137 184 159 186 199 264 337 206 201 206 212 223 231 233 217 215 218 218 201 197 212 228 235 239 232 225 222 221 230 232 231 230 226 213 200 209 213 211 225 221 217 209 212 217
196 172 156 166 124 146 118 60 8 193 254 44 31 217 213 214 222 234 240 232 222 218 219 212 195 205 219 226 236 238 233 229 226 227 231 231 230 234 234 217 209 212 210 221 225 227 225 213 217
156 167 157 161 162 152 142 87 4 12 356 13 353 349 248 227 227 226 233 239 229 229 226 222 215 207 216 217 226 238 238 235 230 231 228 229 227 232 237 238 217 212 216 219 228 231 232 230 228
115 97 157 174 176 156 126 133 155 181 179 295 290 286 281 221 224 230 226 236 235 231 231 221 215 219 210 224 233 235 238 238 236 234 236 231 231 232 233 231 229 224 222 227 233 239 234 232 237